Home   Weather   Tananger   Past weeks
Flag for Norway

Past Weather in Tananger, Norway — Yesterday and Last 2 Weeks

Now
50 °F

Partly sunny.


Feels Like: 48 °F
Forecast: 52 / 47 °F
Wind: 5 mph from Southwest

Location: Stavanger / Sola

Current Time: Oct 21, 2019 at 5:22:34 pm

Latest Report: Oct 21, 2019 at 4:50 pm


Visibility: N/A

Pressure: 30.09 "Hg

Humidity: 76%

Dew Point: 43 °F

Location of TanangerLocation

Past Weather in Tananger — Graph

°F

Tananger Temperature Yesterday

Maximum temperature yesterday: 57 °F (at 1:50 pm)
Minimum temperature yesterday: 41 °F (at 11:50 pm)
Average temperature yesterday: 48 °F

High & Low Weather Summary for the Past Weeks

 TemperatureHumidityPressure
High57 °F (Oct 17, 11:50 am)100% (Oct 17, 7:50 pm)30.24 "Hg (Oct 17, 7:50 pm)
Low32 °F (Oct 7, 6:20 am)40% (Oct 6, 4:50 pm)29.24 "Hg (Oct 9, 3:50 am)
Average50 °F82%29.62 "Hg
* Reported Oct 6 3:20 pm — Oct 21 3:50 pm, Tananger. Weather by CustomWeather, © 2019

Note: Actual official high and low records may vary slightly from our data, if they occured in-between our weather recording intervals... More about our weather records

Advertising

Tananger Weather History for the Previous 24 Hours

Scroll right to see more
 ConditionsComfort  
Time TempWeatherWind HumidityBarometerVisibility
3:50 pm
Mon, Oct 21
50 °FPartly sunny.5 mph82%30.12 "HgN/A
3:20 pm50 °FPartly sunny.3 mph82%30.12 "HgN/A
2:50 pm50 °FPartly sunny.2 mph82%30.12 "HgN/A
2:20 pm50 °FPartly sunny.6 mph82%30.12 "HgN/A
1:50 pm50 °FPartly sunny.3 mph88%30.12 "HgN/A
1:20 pm48 °FPartly sunny.2 mph87%30.15 "HgN/A
12:50 pm48 °FPartly sunny.No wind87%30.15 "HgN/A
12:20 pm46 °FPartly sunny.No wind93%30.12 "HgN/A
11:50 am46 °FPartly sunny.No wind93%30.12 "HgN/A
11:20 am45 °FScattered clouds.2 mph93%30.12 "HgN/A
10:50 am43 °FScattered clouds.3 mph93%30.12 "HgN/A
10:20 am41 °FScattered clouds.3 mph93%30.12 "HgN/A
9:50 am39 °FScattered clouds.2 mph100%30.12 "HgN/A
9:20 am39 °FLight fog.2 mph93%30.09 "HgN/A
8:50 am39 °FFog.1 mph93%30.09 "Hg2 mi
8:20 am37 °FFog.6 mph93%30.09 "Hg0 mi
7:50 am37 °FFog.No wind93%30.09 "HgN/A
7:20 am37 °FPassing clouds.1 mph100%30.09 "HgN/A
6:50 am39 °FPassing clouds.1 mph93%30.09 "HgN/A
6:20 am37 °FPassing clouds.1 mph93%30.09 "HgN/A
5:50 am37 °FPassing clouds.No wind100%30.09 "HgN/A
5:20 am37 °FPassing clouds.3 mph100%30.09 "HgN/A
4:50 am36 °FPassing clouds.6 mph100%30.07 "HgN/A
4:20 am39 °FPassing clouds.3 mph100%30.07 "HgN/A
3:50 am39 °FPassing clouds.No wind100%30.07 "HgN/A
2:50 am39 °FPassing clouds.2 mph100%30.07 "HgN/A
1:50 am41 °FClear.3 mph93%30.04 "Hg10 mi
1:20 am41 °FClear.6 mph93%30.04 "Hg10 mi
12:50 am41 °FClear.3 mph93%30.01 "Hg10 mi
12:20 am43 °FClear.3 mph93%30.01 "Hg10 mi
11:50 pm
Sun, Oct 20
41 °FClear.5 mph100%30.01 "Hg10 mi
11:20 pm43 °FClear.5 mph93%30.01 "Hg10 mi
10:50 pm43 °FClear.5 mph93%29.98 "Hg10 mi
10:20 pm43 °FClear.3 mph93%29.98 "Hg10 mi
9:50 pm43 °FClear.3 mph93%29.98 "Hg10 mi
9:20 pm45 °FClear.5 mph93%29.95 "HgN/A
8:50 pm45 °FClear.3 mph93%29.95 "Hg10 mi
8:20 pm45 °FClear.1 mph93%29.95 "Hg10 mi
7:50 pm45 °FClear.1 mph93%29.92 "Hg10 mi
7:20 pm46 °FClear.2 mph87%29.92 "Hg10 mi
6:50 pm48 °FClear.No wind82%29.89 "Hg10 mi
6:20 pm50 °FPassing clouds.2 mph76%29.89 "HgN/A
5:50 pm52 °FScattered clouds.2 mph72%29.89 "HgN/A
5:20 pm52 °FScattered clouds.2 mph72%29.86 "HgN/A
Weather by CustomWeather, © 2019

See weather overview